DLH5CO EDDH-EDDM

Flight info

Callsign DLH5CO
Flight time 0h 56m
Altitude 33000
Route AMLUH2C/05 AMLUH M852 DENIX DCT ZUCKA DCT SODRO/N0456F310 T703 LULAR/N0460F300 T105 LANDU
Aircraft A320/M-SDE3FGHIRWY/LB1

Departure

Time 2026-05-07 11:24
Airport Hamburg Helmut Schmidt Airport (EDDH)

Arrival

Time 2026-05-07 12:20
Airport Munich Airport (EDDM)
Time Latitude Longitude Altitude Speed Heading
2026-05-07 11:07 53.63450 10.00307 51 ft 0 kts 86°
2026-05-07 11:14 53.63449 10.00290 49 ft 2 kts 90°
2026-05-07 11:15 53.63449 10.00262 49 ft 2 kts 95°
2026-05-07 11:15 53.63451 10.00235 48 ft 2 kts 114°
2026-05-07 11:15 53.63462 10.00213 45 ft 2 kts 169°
2026-05-07 11:15 53.63472 10.00211 46 ft 1 kts 177°
2026-05-07 11:17 53.63457 10.00208 47 ft 6 kts 189°
2026-05-07 11:17 53.63400 10.00174 51 ft 10 kts 195°
2026-05-07 11:17 53.63318 10.00168 51 ft 14 kts 176°
2026-05-07 11:17 53.63211 10.00180 51 ft 16 kts 176°
2026-05-07 11:18 53.63108 10.00192 51 ft 14 kts 176°
2026-05-07 11:18 53.63025 10.00138 48 ft 12 kts 212°
2026-05-07 11:18 53.62956 10.00068 50 ft 11 kts 206°
2026-05-07 11:18 53.62886 10.00033 51 ft 11 kts 195°
2026-05-07 11:19 53.62806 9.99965 50 ft 15 kts 210°
2026-05-07 11:19 53.62705 9.99868 51 ft 18 kts 210°
2026-05-07 11:19 53.62634 9.99740 48 ft 15 kts 253°
2026-05-07 11:19 53.62613 9.99559 51 ft 17 kts 259°
2026-05-07 11:20 53.62588 9.99338 51 ft 20 kts 259°
2026-05-07 11:20 53.62562 9.99117 48 ft 18 kts 259°
2026-05-07 11:20 53.62538 9.98916 51 ft 17 kts 259°
2026-05-07 11:20 53.62515 9.98718 51 ft 19 kts 259°
2026-05-07 11:21 53.62491 9.98486 51 ft 20 kts 260°
2026-05-07 11:21 53.62464 9.98265 51 ft 18 kts 262°
2026-05-07 11:21 53.62409 9.98062 51 ft 20 kts 234°
2026-05-07 11:21 53.62325 9.97887 51 ft 18 kts 230°
2026-05-07 11:22 53.62248 9.97730 51 ft 17 kts 230°
2026-05-07 11:22 53.62183 9.97583 50 ft 15 kts 248°
2026-05-07 11:22 53.62197 9.97429 49 ft 13 kts 307°
2026-05-07 11:22 53.62263 9.97358 53 ft 9 kts 333°
2026-05-07 11:23 53.62315 9.97371 52 ft 8 kts 37°
2026-05-07 11:23 53.62408 9.97556 52 ft 50 kts 50°
2026-05-07 11:23 53.62779 9.98304 53 ft 114 kts 50°
2026-05-07 11:23 53.63380 9.99547 220 ft 148 kts 52°
2026-05-07 11:24 53.64019 10.00877 1161 ft 145 kts 50°
2026-05-07 11:24 53.64686 10.02217 1840 ft 157 kts 50°
2026-05-07 11:24 53.65422 10.03673 2297 ft 169 kts 51°
2026-05-07 11:24 53.66207 10.05273 2870 ft 181 kts 52°
2026-05-07 11:25 53.67028 10.06969 3487 ft 190 kts 53°
2026-05-07 11:25 53.67879 10.08730 4109 ft 197 kts 52°
2026-05-07 11:25 53.68763 10.10549 4764 ft 203 kts 52°
2026-05-07 11:25 53.69676 10.12414 5333 ft 209 kts 53°
2026-05-07 11:26 53.70313 10.14605 5876 ft 212 kts 79°
2026-05-07 11:26 53.70234 10.17117 6544 ft 218 kts 106°
2026-05-07 11:26 53.69509 10.19400 7179 ft 231 kts 129°
2026-05-07 11:26 53.68129 10.20961 7666 ft 253 kts 160°
2026-05-07 11:27 53.66366 10.21684 8204 ft 269 kts 164°
2026-05-07 11:27 53.64510 10.22494 8851 ft 279 kts 163°
2026-05-07 11:27 53.62621 10.23349 9646 ft 283 kts 164°
2026-05-07 11:27 53.60703 10.24223 10386 ft 290 kts 164°
2026-05-07 11:28 53.58685 10.25146 10694 ft 312 kts 164°
2026-05-07 11:28 53.56520 10.26134 10902 ft 335 kts 164°
2026-05-07 11:28 53.54191 10.27192 11193 ft 353 kts 164°
2026-05-07 11:28 53.51797 10.28272 11817 ft 359 kts 165°
2026-05-07 11:29 53.49371 10.29356 12521 ft 363 kts 165°
2026-05-07 11:29 53.46917 10.30449 13251 ft 366 kts 165°
2026-05-07 11:29 53.44448 10.31550 13944 ft 369 kts 165°
2026-05-07 11:29 53.41961 10.32663 14573 ft 372 kts 165°
2026-05-07 11:30 53.39445 10.33794 15201 ft 375 kts 165°
2026-05-07 11:30 53.36917 10.34934 15823 ft 377 kts 165°
2026-05-07 11:30 53.34366 10.36088 16441 ft 379 kts 166°
2026-05-07 11:30 53.31821 10.37236 17028 ft 382 kts 166°
2026-05-07 11:31 53.29242 10.38394 17594 ft 385 kts 166°
2026-05-07 11:31 53.26641 10.39559 18149 ft 388 kts 166°
2026-05-07 11:31 53.24022 10.40729 18658 ft 391 kts 166°
2026-05-07 11:31 53.21381 10.41905 19140 ft 394 kts 166°
2026-05-07 11:32 53.16038 10.44291 20079 ft 400 kts 166°
2026-05-07 11:32 53.13345 10.45486 20540 ft 403 kts 167°
2026-05-07 11:32 53.10600 10.46579 20996 ft 405 kts 169°
2026-05-07 11:33 53.07831 10.47507 21457 ft 408 kts 171°
2026-05-07 11:33 53.05029 10.48337 21904 ft 410 kts 171°
2026-05-07 11:33 53.02202 10.49130 22333 ft 413 kts 172°
2026-05-07 11:33 52.99362 10.49930 22778 ft 416 kts 171°
2026-05-07 11:34 52.96503 10.50765 23204 ft 418 kts 171°
2026-05-07 11:34 52.93630 10.51638 23610 ft 421 kts 171°
2026-05-07 11:34 52.90745 10.52537 23963 ft 423 kts 170°
2026-05-07 11:34 52.87844 10.53450 24317 ft 425 kts 170°
2026-05-07 11:35 52.84929 10.54364 24672 ft 427 kts 170°
2026-05-07 11:35 52.82003 10.55275 25026 ft 429 kts 170°
2026-05-07 11:35 52.79061 10.56183 25392 ft 431 kts 170°
2026-05-07 11:35 52.76109 10.57086 25737 ft 432 kts 170°
2026-05-07 11:36 52.73145 10.57994 26070 ft 434 kts 170°
2026-05-07 11:36 52.70167 10.58900 26416 ft 436 kts 170°
2026-05-07 11:36 52.67177 10.59813 26724 ft 438 kts 170°
2026-05-07 11:36 52.65151 10.60435 26936 ft 439 kts 170°
2026-05-07 11:37 52.62143 10.61360 27245 ft 441 kts 169°
2026-05-07 11:37 52.59124 10.62286 27554 ft 442 kts 170°
2026-05-07 11:37 52.56093 10.63207 27849 ft 444 kts 169°
2026-05-07 11:37 52.53045 10.64129 28148 ft 446 kts 169°
2026-05-07 11:38 52.49991 10.65051 28437 ft 447 kts 169°
2026-05-07 11:38 52.46925 10.65985 28779 ft 448 kts 169°
2026-05-07 11:38 52.43862 10.66917 29202 ft 446 kts 169°
2026-05-07 11:38 52.40815 10.67842 29630 ft 445 kts 169°
2026-05-07 11:39 52.37767 10.68761 30043 ft 444 kts 169°
2026-05-07 11:39 52.34730 10.69674 30386 ft 444 kts 169°
2026-05-07 11:39 52.31696 10.70586 30721 ft 443 kts 169°
2026-05-07 11:39 52.28670 10.71495 31066 ft 442 kts 169°
2026-05-07 11:40 52.25645 10.72400 31384 ft 442 kts 170°
2026-05-07 11:40 52.22615 10.73304 31693 ft 442 kts 170°
2026-05-07 11:40 52.19591 10.74204 32009 ft 442 kts 170°
2026-05-07 11:40 52.16569 10.75108 32326 ft 442 kts 170°
2026-05-07 11:41 52.13541 10.76018 32637 ft 442 kts 170°
2026-05-07 11:41 52.10515 10.76925 32953 ft 442 kts 170°
2026-05-07 11:41 52.07496 10.77830 33280 ft 441 kts 171°
2026-05-07 11:41 52.04472 10.78737 33610 ft 441 kts 171°
2026-05-07 11:42 52.01459 10.79632 33921 ft 441 kts 171°
2026-05-07 11:42 51.98441 10.80520 34190 ft 441 kts 171°
2026-05-07 11:42 51.95422 10.81406 34437 ft 441 kts 171°
2026-05-07 11:42 51.92408 10.82294 34700 ft 440 kts 171°
2026-05-07 11:43 51.89394 10.83182 34938 ft 441 kts 171°
2026-05-07 11:43 51.83342 10.84967 35033 ft 443 kts 171°
2026-05-07 11:44 51.77270 10.86756 35027 ft 444 kts 171°
2026-05-07 11:44 51.71186 10.88543 35029 ft 444 kts 171°
2026-05-07 11:45 51.65251 10.91316 35030 ft 447 kts 156°
2026-05-07 11:45 51.59665 10.95742 35028 ft 448 kts 155°
2026-05-07 11:46 51.54077 11.00168 35027 ft 447 kts 155°
2026-05-07 11:46 51.48415 11.04302 35021 ft 447 kts 159°
2026-05-07 11:47 51.42622 11.07915 35018 ft 447 kts 161°
2026-05-07 11:47 51.36814 11.11454 35011 ft 446 kts 160°
2026-05-07 11:48 51.31034 11.15103 35006 ft 446 kts 160°
2026-05-07 11:48 51.25266 11.18803 35007 ft 447 kts 160°
2026-05-07 11:49 51.19493 11.22487 35007 ft 447 kts 160°
2026-05-07 11:49 51.13713 11.26145 35008 ft 447 kts 160°
2026-05-07 11:50 51.07928 11.29799 35001 ft 447 kts 160°
2026-05-07 11:50 51.02140 11.33453 34988 ft 447 kts 160°
2026-05-07 11:51 50.96347 11.37089 34999 ft 448 kts 160°
2026-05-07 11:51 50.90546 11.40719 34996 ft 448 kts 160°
2026-05-07 11:52 50.84740 11.44352 34990 ft 449 kts 160°
2026-05-07 11:52 50.78917 11.47992 34987 ft 449 kts 160°
2026-05-07 11:53 50.73101 11.51604 34979 ft 449 kts 160°
2026-05-07 11:53 50.67242 11.55237 34964 ft 450 kts 160°
2026-05-07 11:54 50.61401 11.58841 34810 ft 452 kts 160°
2026-05-07 11:54 50.58478 11.60638 34457 ft 451 kts 160°
2026-05-07 11:54 50.55552 11.62435 34108 ft 451 kts 160°
2026-05-07 11:54 50.52626 11.64234 33719 ft 452 kts 160°
2026-05-07 11:55 50.49693 11.66040 33310 ft 452 kts 159°
2026-05-07 11:55 50.46800 11.67825 32903 ft 452 kts 159°
2026-05-07 11:55 50.43796 11.69513 32498 ft 452 kts 167°
2026-05-07 11:55 50.40708 11.70453 32169 ft 454 kts 170°
2026-05-07 11:56 50.37594 11.71329 31924 ft 456 kts 169°
2026-05-07 11:56 50.34464 11.72203 31670 ft 458 kts 169°
2026-05-07 11:56 50.31320 11.73077 31408 ft 459 kts 169°
2026-05-07 11:56 50.28167 11.73953 31157 ft 461 kts 169°
2026-05-07 11:57 50.25006 11.74830 30941 ft 462 kts 169°
2026-05-07 11:57 50.18658 11.76590 30976 ft 463 kts 169°
2026-05-07 11:58 50.12317 11.78346 30974 ft 463 kts 170°
2026-05-07 11:58 50.05977 11.80095 30968 ft 462 kts 170°
2026-05-07 11:59 49.99647 11.81829 30968 ft 461 kts 171°
2026-05-07 11:59 49.93336 11.83567 30975 ft 460 kts 171°
2026-05-07 12:00 49.87045 11.85284 30979 ft 460 kts 171°
2026-05-07 12:00 49.80696 11.87010 30985 ft 459 kts 171°
2026-05-07 12:01 49.74403 11.88730 30981 ft 459 kts 171°
2026-05-07 12:01 49.68112 11.90444 30979 ft 459 kts 172°
2026-05-07 12:02 49.61824 11.92139 30979 ft 458 kts 172°
2026-05-07 12:02 49.55541 11.93833 30982 ft 458 kts 172°
2026-05-07 12:03 49.49269 11.95521 30980 ft 457 kts 172°
2026-05-07 12:03 49.46148 11.96360 30407 ft 454 kts 172°
2026-05-07 12:03 49.43030 11.97197 29431 ft 457 kts 172°
2026-05-07 12:03 49.39887 11.98038 28347 ft 459 kts 172°
2026-05-07 12:04 49.36736 11.98881 27277 ft 461 kts 172°
2026-05-07 12:04 49.33572 11.99728 26397 ft 461 kts 172°
2026-05-07 12:04 49.30415 12.00572 25261 ft 463 kts 172°
2026-05-07 12:04 49.27228 12.01417 24267 ft 465 kts 172°
2026-05-07 12:05 49.24053 12.02258 23439 ft 461 kts 172°
2026-05-07 12:05 49.20906 12.03094 22503 ft 458 kts 172°
2026-05-07 12:05 49.17771 12.03928 21590 ft 455 kts 172°
2026-05-07 12:05 49.14670 12.04752 20820 ft 450 kts 172°
2026-05-07 12:06 49.11599 12.05569 20104 ft 445 kts 172°
2026-05-07 12:06 49.08566 12.06377 19408 ft 440 kts 173°
2026-05-07 12:06 49.05569 12.07173 18729 ft 435 kts 173°
2026-05-07 12:06 49.02604 12.07959 18036 ft 430 kts 173°
2026-05-07 12:07 48.99672 12.08735 17313 ft 425 kts 173°
2026-05-07 12:07 48.96772 12.09500 16613 ft 421 kts 173°
2026-05-07 12:07 48.93901 12.10254 15923 ft 416 kts 173°
2026-05-07 12:07 48.91057 12.10996 15259 ft 412 kts 173°
2026-05-07 12:08 48.89154 12.11492 14808 ft 409 kts 173°
2026-05-07 12:08 48.86369 12.12216 14141 ft 400 kts 173°
2026-05-07 12:08 48.83692 12.12918 13455 ft 381 kts 173°
2026-05-07 12:08 48.81129 12.13595 12751 ft 366 kts 173°
2026-05-07 12:09 48.78688 12.14240 12226 ft 348 kts 173°
2026-05-07 12:09 48.76358 12.14855 11743 ft 332 kts 173°
2026-05-07 12:09 48.74133 12.15441 11333 ft 317 kts 174°
2026-05-07 12:09 48.72011 12.15995 10956 ft 303 kts 174°
2026-05-07 12:10 48.69967 12.16522 10719 ft 294 kts 174°
2026-05-07 12:10 48.67966 12.17038 10470 ft 290 kts 174°
2026-05-07 12:10 48.65984 12.17549 10147 ft 288 kts 174°
2026-05-07 12:10 48.64017 12.18055 9805 ft 287 kts 174°
2026-05-07 12:11 48.62052 12.18563 9438 ft 286 kts 174°
2026-05-07 12:11 48.60098 12.19068 9072 ft 284 kts 174°
2026-05-07 12:11 48.58153 12.19570 8691 ft 283 kts 174°
2026-05-07 12:11 48.56216 12.20067 8335 ft 281 kts 174°
2026-05-07 12:12 48.54287 12.20563 7992 ft 281 kts 174°
2026-05-07 12:12 48.52369 12.21062 7622 ft 279 kts 174°
2026-05-07 12:12 48.50459 12.21560 7262 ft 278 kts 174°
2026-05-07 12:12 48.48561 12.22053 6931 ft 276 kts 174°
2026-05-07 12:13 48.46697 12.22539 6780 ft 266 kts 174°
2026-05-07 12:13 48.44907 12.22822 6650 ft 252 kts 187°
2026-05-07 12:13 48.43240 12.22398 6522 ft 236 kts 202°
2026-05-07 12:13 48.41784 12.21368 6263 ft 228 kts 217°
2026-05-07 12:14 48.40593 12.19838 5938 ft 224 kts 232°
2026-05-07 12:14 48.39721 12.17924 5602 ft 221 kts 246°
2026-05-07 12:14 48.39222 12.15758 5293 ft 218 kts 260°
2026-05-07 12:14 48.39033 12.13529 5138 ft 212 kts 264°
2026-05-07 12:15 48.38873 12.11346 5045 ft 208 kts 264°
2026-05-07 12:15 48.38717 12.09222 4973 ft 201 kts 264°
2026-05-07 12:15 48.38564 12.07150 4788 ft 191 kts 264°
2026-05-07 12:15 48.38421 12.05214 4544 ft 182 kts 264°
2026-05-07 12:16 48.38284 12.03367 4310 ft 178 kts 264°
2026-05-07 12:16 48.38148 12.01519 4038 ft 177 kts 264°
2026-05-07 12:16 48.38013 11.99656 3805 ft 177 kts 264°
2026-05-07 12:16 48.37879 11.97839 3642 ft 178 kts 265°
2026-05-07 12:17 48.37730 11.96014 3444 ft 173 kts 264°
2026-05-07 12:17 48.37610 11.94247 3249 ft 165 kts 265°
2026-05-07 12:17 48.37490 11.92547 2998 ft 159 kts 265°
2026-05-07 12:17 48.37362 11.90923 2757 ft 153 kts 264°
2026-05-07 12:18 48.37247 11.89421 2542 ft 138 kts 264°
2026-05-07 12:18 48.37142 11.88001 2279 ft 138 kts 265°
2026-05-07 12:18 48.37037 11.86561 2058 ft 138 kts 264°
2026-05-07 12:18 48.36927 11.85149 1898 ft 134 kts 264°
2026-05-07 12:19 48.36817 11.83767 1713 ft 133 kts 263°
2026-05-07 12:19 48.36709 11.82394 1564 ft 132 kts 264°
2026-05-07 12:19 48.36609 11.81079 1476 ft 113 kts 263°
2026-05-07 12:19 48.36538 11.80161 1471 ft 64 kts 263°
2026-05-07 12:20 48.36468 11.79748 1483 ft 29 kts 241°
2026-05-07 12:20 48.36367 11.79531 1471 ft 20 kts 234°
2026-05-07 12:20 48.36294 11.79384 1479 ft 17 kts 233°
2026-05-07 12:20 48.36212 11.79303 1475 ft 15 kts 185°
2026-05-07 12:21 48.36117 11.79311 1476 ft 12 kts 174°
2026-05-07 12:21 48.36041 11.79323 1482 ft 10 kts 173°
2026-05-07 12:21 48.35966 11.79337 1476 ft 12 kts 172°
2026-05-07 12:21 48.35888 11.79376 1479 ft 11 kts 166°
2026-05-07 12:22 48.35813 11.79395 1477 ft 11 kts 159°
2026-05-07 12:22 48.35791 11.79490 1485 ft 9 kts 85°
2026-05-07 12:22 48.35798 11.79594 1480 ft 10 kts 84°
2026-05-07 12:22 48.35807 11.79702 1480 ft 11 kts 83°
2026-05-07 12:23 48.35816 11.79826 1481 ft 13 kts 83°
2026-05-07 12:23 48.35825 11.79951 1485 ft 11 kts 83°
2026-05-07 12:23 48.35808 11.80050 1480 ft 9 kts 143°
2026-05-07 12:23 48.35742 11.80073 1481 ft 11 kts 173°
2026-05-07 12:24 48.35659 11.80097 1480 ft 12 kts 171°
2026-05-07 12:24 48.35583 11.80110 1485 ft 10 kts 173°
2026-05-07 12:24 48.35523 11.80101 1485 ft 8 kts 222°
2026-05-07 12:24 48.35510 11.80041 1477 ft 3 kts 261°
2026-05-07 12:25 48.35508 11.80018 1485 ft 2 kts 262°
2026-05-07 12:25 48.35508 11.80011 1485 ft 0 kts 263°